Vorticity
nan nan nan nan nan nan nan nan nan nan nan nan nan nan nan nan nan nan nan nan nan nan nan nan nan nan nan nan nan nan nan nan nan nan nan nan nan nan nan nan nan nan nan
nan 7 7 7 7 7 7 6 6 6 5 5 5 6 7 7 7 8 9 5 3 6 6 6 6 6 7 8 9 12 13 13 12 10 7 6 7 7 7 6 7 9 nan
nan 8 6 6 6 7 7 6 6 7 7 7 7 7 7 7 8 11 10 8 4 0 -0 3 4 5 5 6 6 7 10 13 13 14 11 8 6 7 6 6 7 6 nan
nan 6 7 8 7 7 6 7 7 7 8 8 7 8 8 7 10 10 8 7 7 5 0 -1 3 4 4 5 6 7 6 8 12 13 15 11 7 6 7 6 6 7 nan
nan 8 8 7 7 8 7 8 7 8 7 7 8 7 6 10 10 6 6 6 6 7 4 -0 3 5 4 6 7 7 7 7 7 10 15 15 13 8 6 6 6 5 nan
nan 6 7 7 8 7 7 7 7 9 8 8 9 9 9 12 6 4 6 6 4 6 6 6 8 5 3 4 7 9 8 9 8 7 9 10 15 18 11 7 7 7 nan
nan 8 7 7 8 7 7 8 8 8 9 10 10 9 15 10 4 2 5 6 5 6 6 8 7 7 5 6 8 6 11 11 9 8 8 10 10 11 17 16 7 6 nan
nan 7 8 8 8 6 6 8 10 10 8 7 11 11 11 8 4 4 6 6 7 6 6 6 6 8 9 10 6 6 10 10 10 10 9 9 11 12 11 15 12 5 nan
nan 7 8 8 7 7 7 7 7 8 9 7 8 11 9 5 5 8 7 6 6 7 7 8 8 9 10 9 8 8 6 7 9 12 12 9 10 11 15 11 12 10 nan
nan 6 8 6 6 7 7 7 7 7 8 7 8 8 7 8 8 8 7 6 7 6 9 10 10 10 11 10 9 9 7 8 8 10 13 11 10 10 13 22 16 11 nan
nan 6 7 7 7 7 6 7 7 6 7 8 8 8 8 9 8 6 5 8 8 11 8 6 11 11 10 8 9 6 10 13 8 7 10 14 12 10 7 19 28 17 nan
nan 9 9 9 8 7 6 7 7 7 7 8 8 7 7 8 9 10 9 7 8 8 9 8 7 9 9 7 3 3 8 13 10 8 6 10 15 11 9 8 18 27 nan
nan 11 11 8 6 7 6 6 8 8 8 8 7 9 9 9 9 8 9 9 8 6 8 7 8 6 7 8 5 3 5 8 8 9 7 6 9 12 10 8 8 13 nan
nan 12 11 8 7 7 6 8 10 9 9 8 8 8 9 9 9 8 8 9 9 8 6 8 9 9 10 7 4 8 11 4 4 8 8 6 5 9 10 8 8 6 nan
nan 11 9 8 9 7 7 11 9 8 9 8 9 9 9 9 8 7 8 8 7 8 7 11 10 9 8 8 7 8 9 7 7 7 9 8 5 6 10 9 10 8 nan
nan 10 9 9 9 9 11 8 8 9 8 8 9 8 7 7 7 8 8 9 8 8 8 9 8 8 8 7 9 10 11 11 8 7 7 13 12 5 7 8 7 7 nan
nan 10 12 13 13 9 6 8 10 9 8 9 9 8 7 8 7 8 9 8 9 8 9 5 8 8 10 10 11 11 14 13 10 7 5 6 12 14 7 8 7 6 nan
nan 12 14 12 8 8 11 14 10 10 12 11 8 7 8 8 7 10 9 9 10 10 9 8 9 10 9 11 13 12 12 10 9 7 6 5 5 12 15 9 6 4 nan
nan 14 12 10 10 12 15 14 12 11 10 9 8 8 9 8 10 9 10 10 10 11 10 11 9 10 11 12 13 14 13 11 9 10 11 9 5 4 13 17 9 4 nan
nan 12 13 16 16 12 12 11 10 8 8 8 8 9 10 9 8 9 12 12 10 10 10 10 10 10 10 11 12 12 13 14 11 11 11 9 10 11 8 21 19 7 nan
nan 12 12 11 14 13 12 9 7 7 8 9 10 10 9 8 11 13 10 7 9 11 9 10 10 10 9 9 9 10 10 11 13 12 9 10 14 15 11 10 20 16 nan
nan 12 13 13 11 9 8 8 10 9 9 9 9 10 11 12 10 11 10 9 10 9 9 10 9 7 9 12 10 10 9 9 12 12 10 9 9 9 10 5 6 13 nan
nan 11 13 12 8 6 4 7 10 10 8 9 10 11 11 10 10 11 10 13 14 13 13 11 11 10 9 8 9 11 13 10 8 8 10 9 8 8 11 8 3 7 nan
nan 12 13 10 6 4 6 7 8 10 9 9 10 10 9 9 9 7 12 15 13 14 16 11 10 12 8 5 7 10 10 12 13 11 10 9 9 10 10 11 9 7 nan
nan 14 12 9 7 5 5 6 8 10 8 10 10 10 10 9 5 10 15 12 11 13 10 9 12 15 14 13 11 12 11 13 11 11 13 10 9 12 11 11 13 13 nan
nan nan nan nan nan nan nan nan nan nan nan nan nan nan nan nan nan nan nan nan nan nan nan nan nan nan nan nan nan nan nan nan nan nan nan nan nan nan nan nan nan nan nan
CAPE
0 0 0 0 0 0 0 0 0 0 0 0 0 0 0 0 0 0 0 0 0 0 0 0 0 0 0 0 0 0 38 307 86 13 61 177 333 427 429 344 286 234 251
0 0 0 0 0 0 0 0 0 0 0 0 0 0 0 0 0 0 0 0 0 0 0 0 0 0 0 0 0 2 0 5 227 150 137 143 212 236 289 326 226 175 285
0 0 0 0 0 0 0 0 0 0 0 0 0 0 0 0 0 0 0 0 0 0 0 0 0 0 0 0 0 0 2 4 4 152 211 195 185 160 247 301 244 178 166
0 0 0 0 0 0 0 0 0 0 0 0 0 0 0 0 0 0 0 0 0 0 0 0 0 0 0 0 0 0 0 2 8 4 96 237 211 175 173 198 274 157 127
0 0 0 0 0 0 0 0 0 0 0 0 0 0 0 0 0 0 0 0 0 0 0 0 0 0 0 0 0 0 0 0 7 15 16 170 222 149 171 185 239 165 171
0 0 0 0 0 0 0 0 0 0 0 0 0 0 0 0 0 0 0 0 0 0 0 0 0 0 0 0 0 0 0 0 5 9 10 12 108 153 148 146 178 190 135
0 0 0 0 0 0 0 0 0 0 0 0 0 0 0 0 0 0 0 0 0 0 0 0 0 0 0 0 0 0 2 4 7 8 9 9 8 0 138 168 184 188 124
0 0 0 0 0 0 0 0 0 0 0 0 0 0 0 0 0 0 0 0 0 0 0 0 0 0 0 0 0 2 5 6 23 10 9 9 9 5 3 158 207 167 105
0 0 0 0 0 0 0 0 0 0 0 0 9 1 0 0 5 0 0 0 1 0 0 0 1 4 10 10 3 5 2 2 4 8 5 6 8 8 4 29 123 217 99
0 0 0 0 0 0 0 0 0 0 0 0 0 4 5 11 10 6 10 16 16 0 2 8 7 16 24 21 5 0 0 1 3 5 9 16 12 9 18 19 60 177 120
0 0 0 0 0 0 0 0 0 0 0 0 3 5 5 14 27 42 26 11 7 15 31 10 38 37 40 20 3 1 3 8 14 10 5 8 15 11 13 39 100 130 144
0 0 0 0 0 0 0 0 1 0 3 8 12 13 5 8 11 28 27 19 6 2 6 10 9 64 55 23 0 0 0 23 16 14 4 2 7 12 7 10 8 62 75
0 0 0 0 0 0 2 4 4 20 27 4 4 2 15 18 26 13 26 30 36 6 1 4 2 19 1 59 17 10 0 0 1 32 1 1 1 6 7 5 10 9 17
0 0 0 0 0 9 3 11 20 37 50 9 3 1 1 1 3 2 16 39 31 24 11 8 0 0 4 30 12 9 7 0 0 0 3 0 0 1 5 5 5 3 1
0 0 0 0 0 2 14 20 12 19 12 5 3 3 0 0 0 1 6 15 29 40 9 0 0 0 3 15 20 3 14 5 0 0 0 0 0 0 1 7 2 2 1
0 0 0 0 0 1 0 0 0 0 0 10 4 0 0 0 0 0 2 5 8 10 14 1 0 0 1 0 5 4 1 10 0 0 0 0 0 0 0 0 1 0 0
0 0 0 0 0 0 1 18 0 0 0 1 0 0 0 0 2 6 9 7 9 12 15 3 7 4 5 11 9 9 10 39 17 0 0 0 0 0 0 0 0 0 0
0 0 0 0 6 28 14 3 0 0 0 0 0 0 0 0 5 12 18 19 22 20 22 18 8 11 25 21 33 36 34 31 39 3 0 0 0 0 0 0 0 0 0
0 0 0 21 21 9 0 0 0 0 0 0 0 0 2 6 8 7 12 18 19 13 15 23 15 17 18 21 26 40 39 38 28 1 0 0 0 0 0 1 0 0 0
3 21 28 3 0 0 0 0 0 0 0 0 0 1 1 3 5 7 13 11 11 26 15 19 18 16 19 23 42 55 44 46 45 27 2 0 0 0 0 0 2 0 0
10 6 0 0 0 0 0 0 0 0 0 0 0 0 0 0 3 6 12 13 11 12 22 37 35 21 18 18 19 31 42 48 59 49 19 6 2 1 14 0 11 23 9
2 8 0 0 0 0 0 0 0 0 0 0 0 0 0 0 1 4 4 4 8 24 50 37 34 69 28 63 30 36 42 51 44 48 34 25 8 3 11 10 0 0 0
0 0 0 0 0 0 0 0 0 0 0 0 0 0 0 1 6 10 7 11 20 13 15 37 38 47 33 31 30 52 60 41 34 23 34 35 29 12 6 0 0 0 0
2 0 0 0 0 0 0 0 0 0 0 0 0 1 4 7 8 13 38 24 20 14 15 37 61 53 41 34 36 35 65 59 29 26 21 31 29 29 22 10 0 0 0
4 0 0 0 0 0 0 0 0 0 1 1 2 4 6 6 7 25 24 25 15 11 8 8 7 14 14 20 35 37 46 65 59 36 24 29 31 42 40 24 6 0 0
0 0 0 0 0 0 0 0 0 7 7 5 5 1 0 8 14 11 15 22 20 21 18 18 18 15 15 19 3 25 26 29 38 58 35 54 26 27 16 2 0 0 0